Location: Beutels
(47.8767°N, 9.8584°E)
Time: 16:09:17
(UTC+00:00)

USA 229 DEB - Pass Details

Date: 19 May 2025
Orbit: 872 x 1339 km, 63.4° (Epoch: 14 June)

Event Time Altitude Azimuth Distance (km) Brightness Sun altitude
Exits shadow 23:20:44 36° 219° (SW) 1,462 4.0 -22.1°
Maximum altitude 23:23:29 90° 313° (NW) 987 3.4 -22.1°
Drops below altitude 10° 23:30:18 10° 41° (NE) 2,906 6.7 -22.1°
Sets 23:33:06 0° 42° (NE) 3,938 7.5 -22.0°
